www.pogodaiklimat.ru

Погода и климат >> Архив погоды >> Монголия >> Улан-Батор аэропорт


ПОГОДА в Улан-Батор аэропорту

  • Прогноз погоды в Улан-Батор аэропорту
  • Монитор погоды в Улан-Батор аэропорту

АРХИВ ПОГОДЫ в Улан-Батор аэропорту

Время (UTC), дата Ветер
(напр.,м/с)
 
Видим.   Явления Облачность Т
(С)
Тd
(С)
f
(%)
Тe
(С)
Тes
(С)
Комфортность P
(гПа)
Po
(гПа)
Тmin
(С)
Tmax
(С)
R
(мм)
R24
(мм)
S
(см)
03 12.08 СЗ 6 50 км 9/9 600 м
[Cu Sc]
+15.3 +11.9 80 +14 +14 1012.1 870.6
06 12.08 СЗ 5 50 км 5/5 1000 м
[Cu med, cong]
+17.3 +11.1 67 +17 +21 1010.9 870.5
09 12.08 СЗ 5 50 км 3/3 1000 м
[Cu med, cong]
+18.6 +8.8 53 +19 +21 1009.3 869.7
12 12.08 С 3 50 км 1/1 1000 м
[Cu hum]
+15.5 +10.3 71 +15 +15 1011.2 869.9 +19.2
15 12.08 СЗ 2 н/о 5/0 2000 м
[Ac lent Ci]
+12.1 +9.5 84 +11 +11 1014.6 871.3
18 12.08 ЮЗ 1 н/о ясно +7.5 +6.6 94 +6 +6 1016.7 870.9
21 12.08 СВ 2 н/о 3/0 2000 м
[Ac lent]
+8.0 +7.2 95 +6 +6 1015.6 870.2
00 13.08 СВ 2 50 км 9/3 600 м
[Cb calv Ac trans Ci]
+10.2 +6.9 80 +9 +10 1014.2 870.1 +5.7
03 13.08 ЮВ 3 50 км 8/6 600 м
[Cb calv Ac lent]
+16.1 +9.8 66 +16 +18 1010.0 869.2
06 13.08 В 2 50 км {ливн. осадки} 9/9 600 м
[Cb calv]
+17.4 +10.5 64 +18 +19 1008.1 868.2
09 13.08 СВ 4 50 км {ливн. осадки} 5/5 600 м
[Cb calv]
+18.6 +11.2 62 +19 +21 1006.3 867.1
12 13.08 Ю 2 50 км {ливн. осадки} 5/3 600 м
[Cb calv Ac lent]
+14.3 +12.0 86 +14 +14 1009.2 867.7 +18.9 3
15 13.08 З 1 н/о 3/3 1000 м
[Sc]
+11.5 +10.1 91 +11 +11 1011.3 868.2
18 13.08 штиль 0 н/о {дождь} 5/5 1000 м
[Sc]
+11.3 +9.7 90 +11 +11 1011.6 868.4
21 13.08 Ю 1 н/о 3/3 1000 м
[Sc]
+7.4 +6.8 96 +6 +6 1013.2 867.9
00 14.08 З 1 50 км 6/1 1000 м
[Cu hum Ac und]
+11.6 +8.8 83 +11 +13 1010.6 867.7 +6.3 0.0
03 14.08 СВ 1 50 км 6/6 600 м
[Cb calv]
+18.1 +11.0 63 +19 +25 1006.4 1067.0
06 14.08 З 3 50 км 8/8 600 м
[Cb calv]
+19.5 +8.2 48 +21 +23 комфорт 1004.8 1066.2
09 14.08 С 6 50 км гроза без осадков 9/8 600 м
[Cb cap Ci fib]
+19.0 +9.8 55 +19 +20 1003.6 865.0
12 14.08 СВ 2 50 км {гроза} 6/3 600 м
[Cb calv Ac lent Ci]
+15.3 +9.0 66 +15 +15 1005.4 864.9 +21.2
15 14.08 С 2 н/о гроза без осадков 6/6 600 м
[Cb cap]
+12.2 +9.2 82 +11 +11 1007.6 865.4
18 14.08 СЗ 4 н/о слаб. ливневой дождь {гроза} 9/9 600 м
[Cb cap]
+10.9 +8.8 87 +8 +8 1009.4 866.3
21 14.08 СЗ 7 н/о {ливн. осадки} 10/10 600 м
[Sc]
+10.6 +8.9 89 +7 +7 1010.8 867.4
00 15.08 С 7 50 км {ливн. осадки} 9/9 600 м
[Cu Sc]
+10.1 +7.7 85 +6 +6 1012.7 868.7 +9.6 2
03 15.08 С 8 50 км 9/9 600 м
[Cu med, cong]
+12.5 +8.0 74 +10 +10 1013.0 870.2
06 15.08 С 9 50 км 8/5 600 м
[Cb calv Ac cast]
+15.8 +8.8 63 +14 +14 1012.1 870.9
09 15.08 С 8 50 км 6/6 600 м
[Cb calv]
+15.4 +7.9 61 +14 +14 1012.5 871.0
12 15.08 С 4 50 км 3/3 1000 м
[Sc diur, vesp]
+13.1 +7.3 68 +11 +11 1014.7 871.9 +17.0
15 15.08 С 4 н/о ясно +11.0 +7.5 79 +9 +9 1016.2 872.2
18 15.08 В 2 н/о 5/0
[Cs]
+7.4 +5.4 87 +5 +5 1018.0 872.0
21 15.08 Ю 1 н/о 1/0 2000 м
[Ac lent]
+4.7 +4.0 95 +3 +3 1019.6 872.1
00 16.08 С 1 50 км 1/0 2000 м
[Ac lent]
+8.4 +5.5 82 +8 +11 1018.2 872.6 +3.2
03 16.08 СЗ 2 50 км 3/3 600 м
[Cu med, cong]
+13.9 +8.1 68 +13 +22 1014.2 871.8
06 16.08 СЗ 3 50 км 8/8 600 м
[Cb calv]
+18.0 +5.2 43 +18 +20 1010.3 870.3
09 16.08 С 4 50 км 5/5 1000 м
[Cb calv]
+18.9 +5.7 42 +19 +21 1009.0 869.5
12 16.08 С 2 50 км 4/3 1000 м
[Sc diur, vesp Ci fib]
+15.4 +7.2 58 +15 +15 1010.8 869.6 +19.1
15 16.08 Ю 3 н/о ясно +8.8 +7.2 90 +6 +6 1014.9 870.0
18 16.08 З 1 н/о ясно +7.0 +5.5 90 +6 +6 1015.5 869.6
21 16.08 Ю 1 н/о 5/0
[Cc]
+5.1 +4.4 95 +4 +4 1016.3 869.4
00 17.08 З 1 50 км 9/1 1000 м
[Cu hum Ac As Ci fib]
+9.4 +7.5 88 +9 +10 1013.7 869.3 +3.8
03 17.08 В 2 50 км 4/0 2000 м
[Ac lent Ci fib]
+17.3 +8.7 57 +18 +26 1008.0 868.0
06 17.08 ЮЗ 3 50 км 9/1 1000 м
[Cu hum Ac und]
+19.7 +9.9 53 +21 +25 комфорт 1005.1 866.6
09 17.08 З 2 50 км 9/3 1000 м
[Cu hum Ac As]
+20.3 +10.1 52 +22 +24 комфорт 1003.7 865.6
12 17.08 Ю 3 50 км 8/1 1000 м
[Cu hum Ac As]
+14.6 +11.9 84 +14 +14 1006.3 865.3 +21.1
15 17.08 Ю 3 н/о гроза без осадков 8/8 600 м
[Cb cap]
+14.0 +11.2 83 +13 +13 1008.1 866.6
18 17.08 С 2
{19}
н/о {гроза} 1/1 1000 м
[Sc]
+11.1 +8.7 85 +10 +10 1011.0 867.7
21 17.08 В 1 н/о ясно +8.7 +8.1 96 +8 +8 1013.6 868.9
00 18.08 ЮВ 1 50 км 8/5 600 м
[Sc Ac lent]
+12.0 +9.4 84 +12 +13 1013.4 870.3 +7.4
03 18.08 СЗ 4 50 км 8/8 1000 м
[Sc]
+13.8 +8.6 71 +12 +14 1013.9 871.5
06 18.08 С 5 50 км 8/5 1000 м
[Cu med, cong Ac lent]
+15.8 +7.8 59 +15 +17 1011.4 870.2
09 18.08 С 5 50 км 8/3 1000 м
[Cu med, cong Cs]
+17.2 +7.8 54 +17 +18 1009.9 869.6
12 18.08 С 4 50 км 9/0 2000 м
[Ac As Ci]
+14.5 +7.6 63 +13 +13 1012.0 870.2 +17.9
15 18.08 ЮЗ 2 н/о 9/0 2000 м
[Ac As]
+12.0 +8.8 81 +11 +11 1012.8 869.7
18 18.08 СЗ 1 н/о слаб. дождь 10/10 600 м
[Sc]
+10.5 +9.1 91 +10 +10 1013.9 870.0
21 18.08 В 2 н/о слаб. дождь 10/0 600 м
[As op]
+10.9 +9.2 89 +10 +10 1012.4 868.8
00 19.08 ЮВ 6 20 км слаб. дождь 10/0 600 м
[As op]
+11.6 +9.2 85 +9 +9 1010.1 867.3 +9.2 3

 

Местоположение метеостанции Улан-Батор аэропорт (Монголия): широта 47.85 долгота 106.85 высота над уровнем моря 1272 м.

В архиве по умолчанию представлена погода в Улан-Батор аэропорту за последнюю неделю. Архивные данные за месяц целиком и за предыдущие месяцы, начиная с января 2011 года, Вы можете получить, выбрав интересующий диапазон дат из раскрывающегося списка и нажав кнопку "Ввод!".


*Определитесь, кто Вы:
робот инопланетянин человек

Внимание! Время в таблицах - всемирное. Для получения местного времени необходимо прибавить поправку, которая равна 8 ч.

Смотрите также архив погоды в соседних городах и на ближайших метеорологических станциях:

Погода в Улан-Баторе (Монголия) (8 км)
Погода в Маанти (Монголия) (77 км)
Погода в Баруунхараа (Монголия) (133 км)
Погода в Хадатыне (Монголия) (180 км)
Погода в Чойре (Монголия) (187 км)
Погода в Мензе (Забайкальский край, Россия) (227 км)
Погода в Улыгайин Дуганг (Монголия) (229 км)
Погода в Мандалгоби (Монголия) (235 км)
Погода в Бат Олжий Вунд (Монголия) (250 км)
Погода в Булгане (Монголия) (266 км)

Пояснения к столбцам:

Ветер - указаны скорость ветра в м/с - средняя за 10 мин, порывы в срок и между сроками (в фигурных скобках) и направление, откуда дует ветер: С - северный, СВ - северо-восточный, В - восточный, ЮВ - юго-восточный, Ю - южный, ЮЗ - юго-западный, З - западный, СЗ - северо-западный.
Видимость - горизонтальная дальность видимости в метрах или километрах. При видимости от 1 до 10 км при отсутствии осадков обычно наблюдается дымка, при ухудшении видимости до 1 км и менее - туман. В сухую погоду видимость может ухудшаться дымом, пылью или мглою.
Явления - указаны атмосферные явления, наблюдавшиеся в срок или в последний час перед сроком; фигурными скобками обозначены явления, наблюдавшиеся между сроками (за 1-3 часа до срока); квадратными скобками обозначены град или гололедные отложения с указанием их диаметра в мм.
Облачность - указаны через наклонную черту общая и нижняя облачность в баллах и высота нижней границы облаков в метрах; квадратными скобками обозначены формы облаков: Ci - перистые, Cs - перисто-слоистые, Cc - перисто-кучевые, Ac - высококучевые, As - высокослоистые, Sc - слоисто-кучевые, Ns - слоисто-дождевые, Cu - кучевые, Cb - кучево-дождевые. Подробнее классификацию облаков см. в Атласе облаков (PDF).
T - Температура воздуха - температура, измеренная на высоте 2 м над землей.
Td - Температура точки росы - температура, при понижении до которой содержащийся в воздухе водяной пар достигнет насыщения.
f - Относительная влажность воздуха - влажноcть воздуха, измеренная на высоте 2 м над землей.
Te - Эффективная температура - температура, которую ощущает одетый по сезону человек в тени. Характеристика душности погоды. При расчете учитывается влияние влажности воздуха и скорости ветра на теплоощущения человека.
Tes - Эффективная температура на солнце - температура, которую ощущает человек, с поправкой на солнечный нагрев. Характеристика знойности погоды. Зависит от высоты солнца над горизонтом, облачности и скорости ветра. Ночью, в пасмурную погоду, а также при ветре 12 м/с и более поправка равна нулю.
P - Атмосферное давление - приведенное к уровню моря атмосферное давление.
Po - Атмосферное давление - измеренное на уровне метеостанции атмосферное давление.
Tmin - Минимальная температура - минимум температуры воздуха на высоте 2 м над землей.
Tmax - Максимальная температура - максимум температуры воздуха на высоте 2 м над землей.
R - Количество осадков - Количество выпавших осадков за период времени, мм. При наведении курсора мыши на число - период времени, за который выпало указанное количество осадков.
R24 - Количество осадков - Количество выпавших осадков за 24 часа, мм.
S - Снежный покров - Высота снежного покрова, см. При наведении курсора мыши на число - состояние снежного покрова и степень покрытия местности в баллах.